Montreal Mirabel, Quebec

6:52 AM EDT on July 23, 2017 (GMT -0400)
Montreal Mirabel

Weather History for CYMX - September, 2014

Change the Weather History Date:

Wednesday, September 10, 2014

  Actual Average Record
Temperature  
Mean Temperature 62 °F -  
Max Temperature 73 °F 69 °F 87 °F (2002)
Min Temperature 50 °F 51 °F 41 °F (2003)
Degree Days  
Heating Degree Days 4    
Growing Degree Days 12 (Base 50)    
Moisture  
Dew Point 56 °F    
Average Humidity 80    
Maximum Humidity 100    
Minimum Humidity 64    
Precipitation  
Precipitation 0.00 in - - ()
Sea Level Pressure  
Sea Level Pressure 30.05 in    
Wind  
Wind Speed 3 mph ()    
Max Wind Speed 8 mph    
Max Gust Speed -    
Visibility 16.7 miles    
Events      
Averages and records for this station are not official NWS values.
T = Trace of Precipitation, MM = Missing Value Source: Averaged Metar Reports

Daily Weather History Graph

Daily Weather History Graph

Search for Another Location

Airport or City:

Trip Planner

Search our weather history database for the weather conditions in past years. The results will help you decide how hot, cold, wet, or windy it might be!

Date:

Astronomy

Sep. 10, 2014 Rise Set
Actual Time 6:28 AM EDT 7:17 PM EDT
Civil Twilight 5:58 AM EDT 7:47 PM EDT
Nautical Twilight 5:22 AM EDT 8:22 PM EDT
Astronomical Twilight 4:44 AM EDT 9:00 PM EDT
Moon 8:05 PM EDT (9/10) 8:19 AM EDT (9/10)
Length of Visible Light 13h 48m
Length of Day
12h 48m
Waning Gibbous, 96% of the Moon is Illuminated
Sep 10
Waning Gibbous
Sep 15
Last Quarter
Sep 24
New
Oct 1
First Quarter
Oct 8
Full

Hourly Weather History & Observations

Time (EDT) Temp. Dew Point Humidity Pressure Visibility Wind Dir Wind Speed Gust Speed Precip Events Conditions
12:00 AM 53.6 °F 50.0 °F 88% 30.12 in 25.0 mi East 4.6 mph - N/A   Mostly Cloudy
1:00 AM 53.6 °F 51.8 °F 94% 30.13 in 25.0 mi Variable 2.3 mph - N/A   Mostly Cloudy
2:00 AM 51.8 °F 50.0 °F 94% 30.13 in 25.0 mi Calm Calm - N/A   Mostly Cloudy
3:00 AM 51.8 °F 50.0 °F 94% 30.12 in 25.0 mi Calm Calm - N/A   Mostly Cloudy
4:00 AM 50.0 °F 50.0 °F 100% 30.11 in 25.0 mi NNE 2.3 mph - N/A   Scattered Clouds
5:00 AM 51.8 °F 50.0 °F 94% 30.12 in 25.0 mi NNE 2.3 mph - N/A   Partly Cloudy
6:00 AM 50.0 °F 48.2 °F 94% 30.11 in 45.0 mi NE 3.5 mph - N/A   Partly Cloudy
7:00 AM 51.8 °F 50.0 °F 94% 30.12 in 45.0 mi NE 4.6 mph - N/A   Partly Cloudy
8:00 AM 55.4 °F 51.8 °F 88% 30.13 in 15.0 mi NE 4.6 mph - N/A   Partly Cloudy
9:00 AM 57.2 °F 53.6 °F 88% 30.12 in 15.0 mi NE 4.6 mph - N/A   Mostly Cloudy
10:00 AM 62.6 °F 55.4 °F 77% 30.13 in 20.0 mi NNE 3.5 mph - N/A   Mostly Cloudy
11:00 AM 66.2 °F 57.2 °F 73% 30.10 in 25.0 mi ESE 2.3 mph - N/A   Scattered Clouds
12:00 PM 71.6 °F 59.0 °F 64% 30.08 in 45.0 mi Variable 4.6 mph - N/A   Scattered Clouds
1:00 PM 73.4 °F 60.8 °F 65% 30.06 in 25.0 mi Variable 2.3 mph - N/A   Mostly Cloudy
2:00 PM 73.4 °F 60.8 °F 65% 30.04 in 25.0 mi SE 6.9 mph - N/A   Mostly Cloudy
3:00 PM 73.4 °F 60.8 °F 65% 30.03 in 45.0 mi South 5.8 mph - N/A   Mostly Cloudy
4:00 PM 73.4 °F 60.8 °F 65% 30.01 in 45.0 mi SSE 5.8 mph - N/A   Overcast
5:00 PM 71.6 °F 62.6 °F 73% 29.99 in 45.0 mi SSE 6.9 mph - N/A   Overcast
6:00 PM 71.6 °F 60.8 °F 69% 29.97 in 45.0 mi ESE 4.6 mph - N/A   Overcast
7:00 PM 69.8 °F 60.8 °F 73% 29.96 in 45.0 mi ESE 5.8 mph - N/A   Overcast
8:00 PM 68.0 °F 59.0 °F 73% 29.94 in 25.0 mi ESE 6.9 mph - N/A   Overcast
9:00 PM 68.0 °F 60.8 °F 78% 29.92 in 25.0 mi SE 6.9 mph - N/A   Overcast
10:00 PM 68.0 °F 59.0 °F 73% 29.90 in 25.0 mi SSE 6.9 mph - N/A   Overcast
11:00 PM 68.0 °F 60.8 °F 78% 29.87 in 25.0 mi SE 8.1 mph - N/A   Overcast